Time,TemperatureF,DewpointF,PressureIn,WindDirection,WindDirectionDegrees,WindSpeedMPH,WindSpeedGustMPH,Humidity,HourlyPrecipIn,Conditions,Clouds,dailyrainin,SolarRadiationWatts/m^2,SoftwareType,DateUTC
2013-02-06 00:21:00,41.0,32.0,-100.00,North,359,3.0,4.0,70,0.00,,,0.00,1.000000,,2013-02-06 06:21:00,
2013-02-06 00:32:00,41.0,32.0,-100.00,North,359,3.0,4.0,70,0.00,,,0.00,1.000000,,2013-02-06 06:32:00,
2013-02-06 00:42:00,41.0,32.0,-100.00,North,359,3.0,4.0,70,0.00,,,0.00,1.000000,,2013-02-06 06:42:00,
2013-02-06 00:51:00,41.0,32.0,-100.00,North,359,3.0,4.0,70,0.00,,,0.00,1.000000,,2013-02-06 06:51:00,
2013-02-06 01:11:00,44.0,30.0,-100.00,NNE,23,4.0,7.0,58,0.00,,,0.00,1.000000,,2013-02-06 07:11:00,
2013-02-06 01:22:00,44.0,30.0,-100.00,NNE,23,4.0,7.0,58,0.00,,,0.00,1.000000,,2013-02-06 07:22:00,
2013-02-06 01:53:00,40.0,30.0,-100.00,NE,35,2.0,5.0,68,-99.99,,,0.00,1.000000,,2013-02-06 07:53:00,
2013-02-06 02:21:00,40.0,30.0,-100.00,NE,35,2.0,5.0,68,-99.99,,,0.00,1.000000,,2013-02-06 08:21:00,
2013-02-06 02:31:00,40.0,30.0,-100.00,NE,35,2.0,5.0,68,-99.99,,,0.00,1.000000,,2013-02-06 08:31:00,
2013-02-06 02:42:00,40.0,30.0,-100.00,NE,35,2.0,5.0,68,-99.99,,,0.00,1.000000,,2013-02-06 08:42:00,
2013-02-06 03:11:00,41.0,29.0,-100.00,ESE,103,3.0,8.0,62,0.00,,,0.00,1.000000,,2013-02-06 09:11:00,
2013-02-06 03:21:00,41.0,29.0,-100.00,ESE,103,3.0,8.0,62,0.00,,,0.00,1.000000,,2013-02-06 09:21:00,
2013-02-06 03:41:00,41.0,29.0,-100.00,ESE,103,3.0,8.0,62,0.00,,,0.00,1.000000,,2013-02-06 09:41:00,
2013-02-06 03:51:00,41.0,29.0,-100.00,ESE,103,3.0,8.0,62,0.00,,,0.00,1.000000,,2013-02-06 09:51:00,
2013-02-06 04:11:00,38.0,29.0,-100.00,ENE,75,5.0,8.0,69,-99.99,,,0.00,1.000000,,2013-02-06 10:11:00,
2013-02-06 04:21:00,38.0,29.0,-100.00,ENE,75,5.0,8.0,69,-99.99,,,0.00,1.000000,,2013-02-06 10:21:00,
2013-02-06 04:31:00,38.0,29.0,-100.00,ENE,75,5.0,8.0,69,-99.99,,,0.00,1.000000,,2013-02-06 10:31:00,
2013-02-06 04:42:00,38.0,29.0,-100.00,ENE,75,5.0,8.0,69,-99.99,,,0.00,1.000000,,2013-02-06 10:42:00,
2013-02-06 04:51:00,38.0,29.0,-100.00,ENE,75,5.0,8.0,69,-99.99,,,0.00,1.000000,,2013-02-06 10:51:00,
2013-02-06 05:22:00,37.0,29.0,-100.00,NE,53,4.0,10.0,73,-99.99,,,0.00,1.000000,,2013-02-06 11:22:00,
2013-02-06 05:32:00,37.0,29.0,-100.00,NE,53,4.0,10.0,73,-99.99,,,0.00,1.000000,,2013-02-06 11:32:00,
2013-02-06 05:42:00,37.0,29.0,-100.00,NE,53,4.0,10.0,73,-99.99,,,0.00,1.000000,,2013-02-06 11:42:00,
2013-02-06 05:52:00,37.0,29.0,-100.00,NE,53,4.0,10.0,73,-99.99,,,0.00,1.000000,,2013-02-06 11:52:00,
2013-02-06 06:12:00,36.0,29.0,-100.00,ENE,61,5.0,10.0,76,0.00,,,0.00,1.000000,,2013-02-06 12:12:00,
2013-02-06 06:22:00,36.0,29.0,-100.00,ENE,61,5.0,10.0,76,0.00,,,0.00,1.000000,,2013-02-06 12:22:00,
2013-02-06 06:32:00,36.0,29.0,-100.00,ENE,61,5.0,10.0,76,0.00,,,0.00,1.000000,,2013-02-06 12:32:00,
2013-02-06 06:42:00,36.0,29.0,-100.00,ENE,61,5.0,10.0,76,0.00,,,0.00,1.000000,,2013-02-06 12:42:00,
2013-02-06 06:52:00,36.0,29.0,-100.00,ENE,61,5.0,10.0,76,0.00,,,0.00,1.000000,,2013-02-06 12:52:00,
2013-02-06 07:12:00,34.0,28.0,-100.00,SE,124,0.0,9.0,79,0.00,,,0.00,1.000000,,2013-02-06 13:12:00,
2013-02-06 07:22:00,34.0,28.0,-100.00,SE,124,0.0,9.0,79,0.00,,,0.00,1.000000,,2013-02-06 13:22:00,
2013-02-06 07:32:00,34.0,28.0,-100.00,SE,124,0.0,9.0,79,0.00,,,0.00,1.000000,,2013-02-06 13:32:00,
2013-02-06 07:42:00,34.0,28.0,-100.00,SE,124,0.0,9.0,79,0.00,,,0.00,1.000000,,2013-02-06 13:42:00,
2013-02-06 07:52:00,34.0,28.0,-100.00,SE,124,0.0,9.0,79,0.00,,,0.00,1.000000,,2013-02-06 13:52:00,
2013-02-06 08:22:00,36.0,30.0,-100.00,NE,38,4.0,5.0,78,0.00,,,0.00,56.000000,,2013-02-06 14:22:00,
2013-02-06 08:32:00,36.0,30.0,-100.00,NE,38,4.0,5.0,78,0.00,,,0.00,56.000000,,2013-02-06 14:32:00,
2013-02-06 08:42:00,36.0,30.0,-100.00,NE,38,4.0,5.0,78,0.00,,,0.00,56.000000,,2013-02-06 14:42:00,
2013-02-06 08:52:00,36.0,30.0,-100.00,NE,38,4.0,5.0,78,0.00,,,0.00,56.000000,,2013-02-06 14:52:00,
2013-02-06 09:11:00,41.0,31.0,-100.00,East,88,7.0,10.0,67,0.00,,,0.00,256.000000,,2013-02-06 15:11:00,
2013-02-06 09:21:00,41.0,31.0,-100.00,East,88,7.0,10.0,67,0.00,,,0.00,256.000000,,2013-02-06 15:21:00,
2013-02-06 09:31:00,41.0,31.0,-100.00,East,88,7.0,10.0,67,0.00,,,0.00,256.000000,,2013-02-06 15:31:00,
2013-02-06 09:41:00,41.0,31.0,-100.00,East,88,7.0,10.0,67,0.00,,,0.00,256.000000,,2013-02-06 15:41:00,
2013-02-06 09:52:00,41.0,31.0,-100.00,East,88,7.0,10.0,67,0.00,,,0.00,256.000000,,2013-02-06 15:52:00,
2013-02-06 10:11:00,45.0,31.0,-100.00,ESE,102,8.0,13.0,58,0.00,,,-99.99,449.000000,,2013-02-06 16:11:00,
2013-02-06 10:21:00,45.0,31.0,-100.00,ESE,102,8.0,13.0,58,0.00,,,-99.99,449.000000,,2013-02-06 16:21:00,
2013-02-06 10:32:00,45.0,31.0,-100.00,ESE,102,8.0,13.0,58,0.00,,,-99.99,449.000000,,2013-02-06 16:32:00,
2013-02-06 10:42:00,45.0,31.0,-100.00,ESE,102,8.0,13.0,58,0.00,,,-99.99,449.000000,,2013-02-06 16:42:00,
2013-02-06 10:51:00,45.0,31.0,-100.00,ESE,102,8.0,13.0,58,0.00,,,-99.99,449.000000,,2013-02-06 16:51:00,
2013-02-06 11:11:00,48.0,31.0,-100.00,East,81,8.0,13.0,51,0.00,,,0.00,602.000000,,2013-02-06 17:11:00,
2013-02-06 11:21:00,48.0,31.0,-100.00,East,81,8.0,13.0,51,0.00,,,0.00,602.000000,,2013-02-06 17:21:00,
2013-02-06 11:32:00,48.0,31.0,-100.00,East,81,8.0,13.0,51,0.00,,,0.00,602.000000,,2013-02-06 17:32:00,
2013-02-06 11:42:00,48.0,31.0,-100.00,East,81,8.0,13.0,51,0.00,,,0.00,602.000000,,2013-02-06 17:42:00,
2013-02-06 11:52:00,48.0,31.0,-100.00,East,81,8.0,13.0,51,0.00,,,0.00,602.000000,,2013-02-06 17:52:00,
2013-02-06 12:11:00,50.0,32.0,-100.00,East,84,6.0,12.0,50,0.00,,,0.00,695.000000,,2013-02-06 18:11:00,
2013-02-06 12:23:00,50.0,32.0,-100.00,East,84,6.0,12.0,50,0.00,,,0.00,695.000000,,2013-02-06 18:23:00,
2013-02-06 12:32:00,50.0,32.0,-100.00,East,84,6.0,12.0,50,0.00,,,0.00,695.000000,,2013-02-06 18:32:00,
2013-02-06 12:42:00,50.0,32.0,-100.00,East,84,6.0,12.0,50,0.00,,,0.00,695.000000,,2013-02-06 18:42:00,
2013-02-06 12:52:00,50.0,32.0,-100.00,East,84,6.0,12.0,50,0.00,,,0.00,695.000000,,2013-02-06 18:52:00,
2013-02-06 13:21:00,51.0,31.0,-100.00,East,93,6.0,12.0,46,0.00,,,0.00,704.000000,,2013-02-06 19:21:00,
2013-02-06 13:32:00,51.0,31.0,-100.00,East,93,6.0,12.0,46,0.00,,,0.00,704.000000,,2013-02-06 19:32:00,
2013-02-06 13:42:00,51.0,31.0,-100.00,East,93,6.0,12.0,46,0.00,,,0.00,704.000000,,2013-02-06 19:42:00,
2013-02-06 13:52:00,51.0,31.0,-100.00,East,93,6.0,12.0,46,0.00,,,0.00,704.000000,,2013-02-06 19:52:00,
2013-02-06 14:11:00,54.0,34.0,-100.00,ESE,111,7.0,12.0,46,0.00,,,0.00,696.000000,,2013-02-06 20:11:00,
2013-02-06 14:21:00,54.0,34.0,-100.00,ESE,111,7.0,12.0,46,0.00,,,0.00,696.000000,,2013-02-06 20:21:00,
2013-02-06 14:32:00,54.0,34.0,-100.00,ESE,111,7.0,12.0,46,0.00,,,0.00,696.000000,,2013-02-06 20:32:00,
2013-02-06 14:42:00,54.0,34.0,-100.00,ESE,111,7.0,12.0,46,0.00,,,0.00,696.000000,,2013-02-06 20:42:00,
2013-02-06 14:52:00,54.0,34.0,-100.00,ESE,111,7.0,12.0,46,0.00,,,0.00,696.000000,,2013-02-06 20:52:00,
2013-02-06 15:11:00,53.0,34.0,-100.00,ESE,113,7.0,12.0,48,0.00,,,0.00,387.000000,,2013-02-06 21:11:00,
2013-02-06 15:21:00,53.0,34.0,-100.00,ESE,113,7.0,12.0,48,0.00,,,0.00,387.000000,,2013-02-06 21:21:00,
2013-02-06 15:32:00,53.0,34.0,-100.00,ESE,113,7.0,12.0,48,0.00,,,0.00,387.000000,,2013-02-06 21:32:00,
2013-02-06 15:41:00,53.0,34.0,-100.00,ESE,113,7.0,12.0,48,0.00,,,0.00,387.000000,,2013-02-06 21:41:00,
2013-02-06 15:51:00,53.0,34.0,-100.00,ESE,113,7.0,12.0,48,0.00,,,0.00,387.000000,,2013-02-06 21:51:00,
2013-02-06 16:11:00,51.0,35.0,-100.00,ESE,108,6.0,12.0,54,0.00,,,0.00,217.000000,,2013-02-06 22:11:00,
2013-02-06 16:21:00,51.0,35.0,-100.00,ESE,108,6.0,12.0,54,0.00,,,0.00,217.000000,,2013-02-06 22:21:00,
2013-02-06 16:31:00,51.0,35.0,-100.00,ESE,108,6.0,12.0,54,0.00,,,0.00,217.000000,,2013-02-06 22:31:00,
2013-02-06 16:42:00,51.0,35.0,-100.00,ESE,108,6.0,12.0,54,0.00,,,0.00,217.000000,,2013-02-06 22:42:00,
2013-02-06 16:51:00,51.0,35.0,-100.00,ESE,108,6.0,12.0,54,0.00,,,0.00,217.000000,,2013-02-06 22:51:00,
2013-02-06 17:11:00,49.0,35.0,-100.00,ESE,104,5.0,8.0,58,0.00,,,0.00,75.000000,,2013-02-06 23:11:00,
2013-02-06 17:21:00,49.0,35.0,-100.00,ESE,104,5.0,8.0,58,0.00,,,0.00,75.000000,,2013-02-06 23:21:00,
2013-02-06 17:32:00,49.0,35.0,-100.00,ESE,104,5.0,8.0,58,0.00,,,0.00,75.000000,,2013-02-06 23:32:00,
2013-02-06 17:42:00,49.0,35.0,-100.00,ESE,104,5.0,8.0,58,0.00,,,0.00,75.000000,,2013-02-06 23:42:00,
2013-02-06 17:52:00,49.0,35.0,-100.00,ESE,104,5.0,8.0,58,0.00,,,0.00,75.000000,,2013-02-06 23:52:00,
2013-02-06 18:11:00,47.0,35.0,-100.00,East,82,4.0,8.0,62,0.00,,,0.00,13.000000,,2013-02-07 00:11:00,
2013-02-06 18:21:00,47.0,35.0,-100.00,East,82,4.0,8.0,62,0.00,,,0.00,13.000000,,2013-02-07 00:21:00,
2013-02-06 18:32:00,47.0,35.0,-100.00,East,82,4.0,8.0,62,0.00,,,0.00,13.000000,,2013-02-07 00:32:00,
2013-02-06 18:42:00,47.0,35.0,-100.00,East,82,4.0,8.0,62,0.00,,,0.00,13.000000,,2013-02-07 00:42:00,
2013-02-06 18:51:00,47.0,35.0,-100.00,East,82,4.0,8.0,62,0.00,,,0.00,13.000000,,2013-02-07 00:51:00,
2013-02-06 19:11:00,46.0,35.0,-100.00,East,86,4.0,7.0,65,0.00,,,0.00,1.000000,,2013-02-07 01:11:00,
2013-02-06 19:21:00,46.0,35.0,-100.00,East,86,4.0,7.0,65,0.00,,,0.00,1.000000,,2013-02-07 01:21:00,
2013-02-06 19:32:00,46.0,35.0,-100.00,East,86,4.0,7.0,65,0.00,,,0.00,1.000000,,2013-02-07 01:32:00,
2013-02-06 19:41:00,46.0,35.0,-100.00,East,86,4.0,7.0,65,0.00,,,0.00,1.000000,,2013-02-07 01:41:00,
2013-02-06 19:52:00,46.0,35.0,-100.00,East,86,4.0,7.0,65,0.00,,,0.00,1.000000,,2013-02-07 01:52:00,
2013-02-06 20:21:00,45.0,35.0,-100.00,East,96,2.0,6.0,67,0.00,,,0.00,1.000000,,2013-02-07 02:21:00,
2013-02-06 20:32:00,45.0,35.0,-100.00,East,96,2.0,6.0,67,0.00,,,0.00,1.000000,,2013-02-07 02:32:00,
2013-02-06 20:41:00,45.0,35.0,-100.00,East,96,2.0,6.0,67,0.00,,,0.00,1.000000,,2013-02-07 02:41:00,
2013-02-06 20:51:00,45.0,35.0,-100.00,East,96,2.0,6.0,67,0.00,,,0.00,1.000000,,2013-02-07 02:51:00,
2013-02-06 21:11:00,45.0,35.0,-100.00,East,94,2.0,5.0,67,0.00,,,0.00,1.000000,,2013-02-07 03:11:00,
2013-02-06 21:21:00,45.0,35.0,-100.00,East,94,2.0,5.0,67,0.00,,,0.00,1.000000,,2013-02-07 03:21:00,
2013-02-06 21:31:00,45.0,35.0,-100.00,East,94,2.0,5.0,67,0.00,,,0.00,1.000000,,2013-02-07 03:31:00,
2013-02-06 21:42:00,45.0,35.0,-100.00,East,94,2.0,5.0,67,0.00,,,0.00,1.000000,,2013-02-07 03:42:00,
2013-02-06 21:51:00,45.0,35.0,-100.00,East,94,2.0,5.0,67,0.00,,,0.00,1.000000,,2013-02-07 03:51:00,
2013-02-06 22:11:00,44.0,34.0,-100.00,ENE,69,3.0,5.0,68,0.00,,,0.00,1.000000,,2013-02-07 04:11:00,
2013-02-06 22:22:00,44.0,34.0,-100.00,ENE,69,3.0,5.0,68,0.00,,,0.00,1.000000,,2013-02-07 04:22:00,
2013-02-06 22:32:00,44.0,34.0,-100.00,ENE,69,3.0,5.0,68,0.00,,,0.00,1.000000,,2013-02-07 04:32:00,
2013-02-06 22:41:00,44.0,34.0,-100.00,ENE,69,3.0,5.0,68,0.00,,,0.00,1.000000,,2013-02-07 04:41:00,
2013-02-06 22:52:00,44.0,34.0,-100.00,ENE,69,3.0,5.0,68,0.00,,,0.00,1.000000,,2013-02-07 04:52:00,
2013-02-06 23:12:00,44.0,33.0,-100.00,NE,53,2.0,4.0,66,0.00,,,0.00,1.000000,,2013-02-07 05:12:00,
2013-02-06 23:21:00,44.0,33.0,-100.00,NE,53,2.0,4.0,66,0.00,,,0.00,1.000000,,2013-02-07 05:21:00,
2013-02-06 23:32:00,44.0,33.0,-100.00,NE,53,2.0,4.0,66,0.00,,,0.00,1.000000,,2013-02-07 05:32:00,
2013-02-06 23:42:00,44.0,33.0,-100.00,NE,53,2.0,4.0,66,0.00,,,0.00,1.000000,,2013-02-07 05:42:00,
2013-02-06 23:52:00,44.0,33.0,-100.00,NE,53,2.0,4.0,66,0.00,,,0.00,1.000000,,2013-02-07 05:52:00,